Location: *
(45.1961°N, 1.9694°E)
Time: 00:46:19
(UTC+00:00)

Cosmos 494 Rocket - Pass Details

Date: 25 August 2019
Orbit: 742 x 770 km, 74.1° (Epoch: 20 September)

Event Time Altitude Azimuth Distance (km) Brightness Sun altitude
Rises 21:34:32 0° 341° (NNW) 3,198 8.3 -25.9°
Reaches altitude 10° 21:36:56 10° 345° (NNW) 2,272 7.3 -26.2°
Enters shadow 21:41:43 60° 47° (NE) 858 4.1 -26.7°
